When you browse on this site, cookies collect data to enhance your experience and personalize the content and advertising you see.
Visit our Privacy Policy to learn more. By continuing to use the site, you agree to this use of cookies and data.
  • In Romania
  • List of Countries
  • For 7 days
  • Water Temperature
  • Weather Map
  • Weather Widgets
  • user-avatar
    Login

    Hourly Weather Zalaegerszeg

    Today, 30 May, Saturday

    Time Temperature Precipitation Wind Pressure Humidity
    00:00 +10°C° 0 mm 4 mps 751 mmHg 76%
    01:00 +10°C° 0 mm 4 mps 751 mmHg 76%
    02:00 +10°C° 0 mm 4 mps 751 mmHg 76%
    03:00 +8°C° 0 mm 4 mps 750 mmHg 77%
    04:00 +8°C° 0 mm 4 mps 750 mmHg 78%
    05:00 +10°C° 0 mm 4 mps 750 mmHg 73%
    06:00 +10°C° 0 mm 5 mps 750 mmHg 69%
    07:00 +11°C° 0 mm 6 mps 750 mmHg 65%
    08:00 +14°C° 0 mm 6 mps 750 mmHg 60%
    09:00 +15°C° 0 mm 6 mps 750 mmHg 56%
    10:00 +16°C° 0 mm 6 mps 749 mmHg 52%
    11:00 +16°C° 0 mm 6 mps 749 mmHg 50%
    12:00 +17°C° 0 mm 6 mps 749 mmHg 48%
    13:00 +17°C° 0 mm 6 mps 748 mmHg 46%
    14:00 +17°C° 0 mm 6 mps 748 mmHg 46%
    15:00 +17°C° 0 mm 6 mps 748 mmHg 47%
    16:00 +17°C° 0 mm 6 mps 747 mmHg 47%
    17:00 +16°C° 0 mm 5 mps 748 mmHg 54%
    18:00 +14°C° 0 mm 4 mps 748 mmHg 60%
    19:00 +13°C° 0 mm 3 mps 748 mmHg 67%
    20:00 +12°C° 0 mm 3 mps 748 mmHg 70%
    21:00 +11°C° 0 mm 3 mps 748 mmHg 74%
    22:00 +10°C° 0 mm 4 mps 749 mmHg 77%
    23:00 +10°C° 0 mm 4 mps 749 mmHg 77%

    Tomorrow, 31 May, Sunday

    Time Temperature Precipitation Wind Pressure Humidity
    00:00 +10°C° 0 mm 4 mps 749 mmHg 78%
    01:00 +8°C° 0 mm 4 mps 749 mmHg 78%
    02:00 +9°C° 0 mm 3 mps 748 mmHg 80%
    03:00 +8°C° 0 mm 3 mps 748 mmHg 81%
    04:00 +8°C° 0 mm 3 mps 748 mmHg 83%
    05:00 +10°C° 0 mm 3 mps 748 mmHg 77%
    06:00 +11°C° 0 mm 4 mps 748 mmHg 71%
    07:00 +13°C° 0 mm 4 mps 748 mmHg 65%
    08:00 +14°C° 0 mm 5 mps 748 mmHg 60%
    09:00 +15°C° 0 mm 6 mps 748 mmHg 56%
    10:00 +17°C° 0 mm 6 mps 748 mmHg 51%
    11:00 +16°C° 0.1 mm 6 mps 748 mmHg 56%
    12:00 +15°C° 0.1 mm 6 mps 748 mmHg 61%
    13:00 +14°C° 0.1 mm 7 mps 748 mmHg 66%
    14:00 +13°C° 0.1 mm 6 mps 748 mmHg 70%
    15:00 +13°C° 0.1 mm 6 mps 748 mmHg 74%
    16:00 +11°C° 0.1 mm 6 mps 748 mmHg 79%
    17:00 +12°C° 0.1 mm 5 mps 747 mmHg 80%
    18:00 +11°C° 0.1 mm 4 mps 747 mmHg 81%
    19:00 +11°C° 0.1 mm 3 mps 747 mmHg 83%
    20:00 +11°C° 0.1 mm 3 mps 747 mmHg 85%
    21:00 +11°C° 0.1 mm 4 mps 748 mmHg 87%
    22:00 +11°C° 0.1 mm 4 mps 748 mmHg 89%
    23:00 +11°C° 0.1 mm 4 mps 748 mmHg 89%

    Day after tomorrow, 1 June, Monday

    Time Temperature Precipitation Wind Pressure Humidity
    00:00 +12°C° 0.1 mm 5 mps 748 mmHg 89%
    01:00 +12°C° 0.1 mm 5 mps 748 mmHg 89%
    02:00 +12°C° 0 mm 5 mps 748 mmHg 89%
    03:00 +12°C° 0 mm 5 mps 747 mmHg 89%
    04:00 +12°C° 0 mm 5 mps 747 mmHg 88%
    05:00 +13°C° 0 mm 6 mps 748 mmHg 84%
    06:00 +12°C° 0 mm 7 mps 748 mmHg 79%
    07:00 +13°C° 0 mm 8 mps 748 mmHg 74%
    08:00 +15°C° 0 mm 7 mps 749 mmHg 72%
    09:00 +15°C° 0 mm 6 mps 749 mmHg 70%
    10:00 +16°C° 0 mm 6 mps 749 mmHg 68%
    11:00 +17°C° 0.1 mm 6 mps 749 mmHg 63%
    12:00 +19°C° 0.1 mm 6 mps 749 mmHg 58%
    13:00 +20°C° 0.1 mm 6 mps 749 mmHg 53%
    14:00 +20°C° 0 mm 6 mps 748 mmHg 53%
    15:00 +20°C° 0 mm 7 mps 748 mmHg 52%
    16:00 +20°C° 0 mm 7 mps 748 mmHg 51%
    17:00 +19°C° 0 mm 6 mps 748 mmHg 57%
    18:00 +17°C° 0 mm 5 mps 748 mmHg 62%
    19:00 +15°C° 0 mm 4 mps 748 mmHg 67%
    20:00 +14°C° 0 mm 4 mps 748 mmHg 67%
    21:00 +13°C° 0 mm 4 mps 749 mmHg 67%
    22:00 +12°C° 0 mm 4 mps 749 mmHg 66%
    23:00 +11°C° 0 mm 4 mps 749 mmHg 70%

    2 June, Tuesday

    Time Temperature Precipitation Wind Pressure Humidity
    00:00 +11°C° 0 mm 4 mps 749 mmHg 73%
    01:00 +10°C° 0 mm 3 mps 749 mmHg 76%
    02:00 +9°C° 0 mm 3 mps 749 mmHg 77%
    03:00 +9°C° 0 mm 3 mps 749 mmHg 79%
    04:00 +8°C° 0 mm 3 mps 749 mmHg 80%
    05:00 +10°C° 0 mm 4 mps 749 mmHg 74%
    06:00 +12°C° 0 mm 5 mps 749 mmHg 68%
    07:00 +13°C° 0 mm 6 mps 749 mmHg 62%
    08:00 +14°C° 0 mm 6 mps 748 mmHg 59%
    09:00 +16°C° 0 mm 6 mps 748 mmHg 55%
    10:00 +17°C° 0 mm 6 mps 748 mmHg 51%
    11:00 +17°C° 0.1 mm 7 mps 748 mmHg 56%
    12:00 +17°C° 0.1 mm 7 mps 747 mmHg 60%
    13:00 +16°C° 0.1 mm 7 mps 747 mmHg 64%
    14:00 +17°C° 0.1 mm 7 mps 746 mmHg 61%
    15:00 +17°C° 0.1 mm 7 mps 746 mmHg 59%
    16:00 +18°C° 0.1 mm 7 mps 745 mmHg 56%
    17:00 +17°C° 0 mm 6 mps 745 mmHg 62%
    18:00 +15°C° 0 mm 4 mps 745 mmHg 68%
    19:00 +14°C° 0 mm 3 mps 745 mmHg 74%
    20:00 +13°C° 0 mm 3 mps 745 mmHg 77%
    21:00 +12°C° 0 mm 3 mps 746 mmHg 81%
    22:00 +12°C° 0 mm 2 mps 746 mmHg 85%
    23:00 +10°C° 0 mm 2 mps 745 mmHg 86%

    3 June, Wednesday

    Time Temperature Precipitation Wind Pressure Humidity
    00:00 +10°C° 0 mm 2 mps 745 mmHg 88%
    01:00 +9°C° 0 mm 2 mps 744 mmHg 89%
    02:00 +9°C° 0 mm 2 mps 744 mmHg 90%
    03:00 +9°C° 0 mm 2 mps 744 mmHg 91%
    04:00 +9°C° 0 mm 2 mps 744 mmHg 92%
    05:00 +11°C° 0 mm 3 mps 744 mmHg 83%
    06:00 +12°C° 0 mm 4 mps 743 mmHg 74%
    07:00 +14°C° 0 mm 4 mps 743 mmHg 65%
    08:00 +15°C° 0 mm 5 mps 743 mmHg 59%
    09:00 +16°C° 0 mm 5 mps 743 mmHg 54%
    10:00 +19°C° 0 mm 5 mps 743 mmHg 49%
    11:00 +19°C° 0 mm 5 mps 743 mmHg 47%
    12:00 +20°C° 0 mm 4 mps 743 mmHg 45%
    13:00 +21°C° 0 mm 4 mps 742 mmHg 44%
    14:00 +21°C° 0 mm 4 mps 742 mmHg 44%
    15:00 +21°C° 0 mm 3 mps 742 mmHg 44%
    16:00 +21°C° 0 mm 3 mps 742 mmHg 44%
    17:00 +19°C° 0 mm 2 mps 742 mmHg 51%
    18:00 +19°C° 0 mm 1 mps 742 mmHg 58%
    19:00 +16°C° 0 mm 1 mps 742 mmHg 65%
    20:00 +15°C° 0 mm 1 mps 742 mmHg 67%
    21:00 +14°C° 0 mm 1 mps 742 mmHg 70%
    22:00 +12°C° 0 mm 1 mps 743 mmHg 72%
    23:00 +11°C° 0 mm 0 mps 743 mmHg 75%

    4 June, Thursday

    Time Temperature Precipitation Wind Pressure Humidity
    00:00 +10°C° 0 mm 0 mps 742 mmHg 77%
    01:00 +10°C° 0 mm 0 mps 742 mmHg 80%
    02:00 +10°C° 0 mm 0 mps 742 mmHg 80%
    03:00 +10°C° 0 mm 0 mps 742 mmHg 80%
    04:00 +10°C° 0 mm 0 mps 741 mmHg 80%
    05:00 +12°C° 0 mm 1 mps 741 mmHg 76%
    06:00 +13°C° 0 mm 1 mps 742 mmHg 73%
    07:00 +15°C° 0 mm 1 mps 742 mmHg 70%
    08:00 +16°C° 0 mm 2 mps 741 mmHg 66%
    09:00 +18°C° 0 mm 2 mps 741 mmHg 61%
    10:00 +20°C° 0 mm 3 mps 741 mmHg 57%
    11:00 +21°C° 0 mm 3 mps 741 mmHg 58%
    12:00 +21°C° 0 mm 3 mps 741 mmHg 58%
    13:00 +22°C° 0 mm 3 mps 741 mmHg 59%
    14:00 +22°C° 0 mm 4 mps 740 mmHg 58%
    15:00 +23°C° 0 mm 4 mps 740 mmHg 57%
    16:00 +25°C° 0 mm 4 mps 740 mmHg 56%
    17:00 +23°C° 0 mm 4 mps 740 mmHg 62%
    18:00 +21°C° 0 mm 4 mps 739 mmHg 68%
    19:00 +20°C° 0 mm 4 mps 739 mmHg 74%
    20:00 +19°C° 0 mm 4 mps 739 mmHg 74%
    21:00 +18°C° 0 mm 4 mps 739 mmHg 74%
    22:00 +17°C° 0 mm 4 mps 739 mmHg 75%
    23:00 +17°C° 0 mm 4 mps 739 mmHg 76%
    Show more